This is the latest recevied weather packets stored in our database for station/object SR9SMR. If no packets are shown the sender has not sent any weather packets the latest 1 day(s).
| Time | Temp. | Humidity | Pressure | Rain* | Wind** | Luminosity | Snow |
|---|---|---|---|---|---|---|---|
| 1778015531 | 13.33° C | 100% | 897.4 hPa | - | 7.6 m/s, 201° | - | - |
| 1778015467 | 13.33° C | 100% | 892.2 hPa | - | 7.15 m/s, 202° | - | - |
| 1778015346 | 13.33° C | 100% | 892.8 hPa | - | 6.71 m/s, 207° | - | - |
| 1778015265 | 13.33° C | 100% | 896.6 hPa | - | 5.36 m/s, 209° | - | - |
| 1778015225 | 13.33° C | 100% | 896.6 hPa | - | 5.36 m/s, 209° | - | - |
| 1778015103 | 13.33° C | 100% | 897.4 hPa | - | 5.81 m/s, 205° | - | - |
| 1778014983 | 13.33° C | 100% | 892.7 hPa | - | 6.26 m/s, 204° | - | - |
| 1778014923 | 13.33° C | 100% | 892.7 hPa | - | 5.81 m/s, 205° | - | - |
| 1778014850 | 13.33° C | 100% | 893.9 hPa | - | 5.81 m/s, 208° | - | - |
| 1778014724 | 13.33° C | 100% | 893.7 hPa | - | 6.26 m/s, 210° | - | - |
| 1778014602 | 13.33° C | 100% | 899.1 hPa | - | 6.71 m/s, 211° | - | - |
| 1778014477 | 13.33° C | 100% | 892.7 hPa | - | 6.71 m/s, 206° | - | - |
| 1778014416 | 13.33° C | 100% | 892.9 hPa | - | 6.71 m/s, 205° | - | - |
| 1778014353 | 13.33° C | 100% | 893.4 hPa | - | 6.71 m/s, 207° | - | - |
| 1778014229 | 13.33° C | 100% | 893.4 hPa | - | 6.71 m/s, 207° | - | - |
| 1778014104 | 13.89° C | 100% | 897.4 hPa | - | 6.71 m/s, 205° | - | - |
| 1778014049 | 13.89° C | 100% | 893 hPa | - | 6.71 m/s, 207° | - | - |
| 1778013984 | 13.89° C | 100% | 892.7 hPa | - | 6.26 m/s, 209° | - | - |
| 1778013928 | 13.33° C | 100% | 892.9 hPa | - | 6.71 m/s, 207° | - | - |
| 1778013861 | 13.33° C | 100% | 893.3 hPa | - | 7.15 m/s, 205° | - | - |
| 1778013800 | 13.33° C | 100% | 893.3 hPa | - | 7.15 m/s, 205° | - | - |
| 1778013666 | 13.89° C | 100% | 897.1 hPa | - | 6.71 m/s, 204° | - | - |
| 1778013605 | 13.89° C | 100% | 894.7 hPa | - | 6.71 m/s, 207° | - | - |
| 1778013542 | 13.89° C | 100% | 897 hPa | - | 7.15 m/s, 211° | - | - |
| 1778013418 | 13.89° C | 100% | 892.8 hPa | - | 8.05 m/s, 218° | - | - |
* Rain since midnight (hover to see other rain measurements)
** Current wind speed in m/s (hover to see current wind gust speed)